Time,TemperatureF,DewpointF,PressureIn,WindDirection,WindDirectionDegrees,WindSpeedMPH,WindSpeedGustMPH,Humidity,HourlyPrecipIn,Conditions,Clouds,dailyrainin,SoftwareType,DateUTC
2013-01-19 00:00:00,40.8,26.6,30.00,SSW,203,9.6,14.5,57,0.00,,,0.14,WUHU216HW,2013-01-19 05:00:00,
2013-01-19 00:01:00,40.8,26.6,30.00,SSW,203,9.6,14.5,57,0.00,,,0.14,WUHU216HW,2013-01-19 05:01:00,
2013-01-19 00:06:00,40.6,26.9,29.99,SW,225,12.7,16.5,58,0.00,,,0.14,WUHU216HW,2013-01-19 05:06:00,
2013-01-19 00:11:00,40.6,26.9,29.99,SSW,203,11.4,16.7,58,0.00,,,0.14,WUHU216HW,2013-01-19 05:11:00,
2013-01-19 00:16:00,40.6,26.9,29.99,SW,225,13.1,21.0,58,0.00,,,0.14,WUHU216HW,2013-01-19 05:16:00,
2013-01-19 00:21:00,40.8,27.1,29.98,SSW,203,16.3,21.0,58,0.00,,,0.14,WUHU216HW,2013-01-19 05:21:00,
2013-01-19 00:26:00,40.6,26.9,29.98,South,180,14.5,16.3,58,0.00,,,0.14,WUHU216HW,2013-01-19 05:26:00,
2013-01-19 00:31:00,40.8,27.1,29.98,SSE,158,14.5,16.3,58,0.00,,,0.14,WUHU216HW,2013-01-19 05:31:00,
2013-01-19 00:36:00,40.8,26.6,29.98,SSW,203,13.6,17.2,57,0.00,,,0.14,WUHU216HW,2013-01-19 05:36:00,
2013-01-19 00:41:00,40.8,26.6,29.98,South,180,18.7,18.7,57,0.00,,,0.14,WUHU216HW,2013-01-19 05:41:00,
2013-01-19 00:46:00,41.0,26.8,29.98,SSE,158,14.0,18.7,57,0.00,,,0.14,WUHU216HW,2013-01-19 05:46:00,
2013-01-19 00:51:00,41.0,26.8,29.98,SSW,203,20.3,20.3,57,0.00,,,0.14,WUHU216HW,2013-01-19 05:51:00,
2013-01-19 00:56:00,41.1,27.0,29.98,South,180,18.3,20.3,57,0.00,,,0.14,WUHU216HW,2013-01-19 05:56:00,
2013-01-19 01:01:00,41.0,26.8,29.97,South,180,4.2,20.3,57,0.00,,,0.14,WUHU216HW,2013-01-19 06:01:00,
2013-01-19 01:06:00,41.0,26.8,29.98,South,180,11.8,18.3,57,0.00,,,0.14,WUHU216HW,2013-01-19 06:06:00,
2013-01-19 01:11:00,41.1,27.0,29.97,SSW,203,16.3,16.3,57,0.00,,,0.14,WUHU216HW,2013-01-19 06:11:00,
2013-01-19 01:16:00,41.0,27.3,29.97,SSW,203,8.2,16.3,58,0.00,,,0.14,WUHU216HW,2013-01-19 06:16:00,
2013-01-19 01:21:00,40.8,27.1,29.97,South,180,16.7,16.7,58,0.00,,,0.14,WUHU216HW,2013-01-19 06:21:00,
2013-01-19 01:26:00,40.8,27.1,29.97,South,180,19.9,19.9,58,0.00,,,0.14,WUHU216HW,2013-01-19 06:26:00,
2013-01-19 01:31:00,40.8,27.1,29.97,SSW,203,16.1,19.9,58,0.00,,,0.14,WUHU216HW,2013-01-19 06:31:00,
2013-01-19 01:36:00,40.8,27.1,29.97,SSW,203,14.3,19.2,58,0.00,,,0.14,WUHU216HW,2013-01-19 06:36:00,
2013-01-19 01:41:00,41.0,27.7,29.97,SSE,158,3.8,16.1,59,0.00,,,0.14,WUHU216HW,2013-01-19 06:41:00,
2013-01-19 01:46:00,40.8,27.5,29.97,SSW,203,12.7,17.6,59,0.00,,,0.14,WUHU216HW,2013-01-19 06:46:00,
2013-01-19 01:51:00,40.8,27.5,29.97,SSW,203,15.8,18.1,59,0.00,,,0.14,WUHU216HW,2013-01-19 06:51:00,
2013-01-19 01:56:00,40.8,27.5,29.97,SSW,203,13.6,18.1,59,0.00,,,0.14,WUHU216HW,2013-01-19 06:56:00,
2013-01-19 02:01:00,41.1,27.9,29.97,SW,225,11.8,13.6,59,0.00,,,0.14,WUHU216HW,2013-01-19 07:01:00,
2013-01-19 02:06:00,41.3,28.0,29.97,SSW,203,8.5,13.4,59,0.00,,,0.14,WUHU216HW,2013-01-19 07:06:00,
2013-01-19 02:11:00,41.5,28.2,29.97,South,180,19.6,19.6,59,0.00,,,0.14,WUHU216HW,2013-01-19 07:11:00,
2013-01-19 02:16:00,41.5,28.2,29.98,SSW,203,10.5,19.6,59,0.00,,,0.14,WUHU216HW,2013-01-19 07:16:00,
2013-01-19 02:21:00,41.5,28.4,29.98,South,180,18.1,19.6,59,0.00,,,0.14,WUHU216HW,2013-01-19 07:21:00,
2013-01-19 02:26:00,41.7,28.4,29.98,South,180,10.9,18.1,59,0.00,,,0.14,WUHU216HW,2013-01-19 07:26:00,
2013-01-19 02:31:00,41.7,28.4,29.98,SSW,203,9.6,18.1,59,0.00,,,0.14,WUHU216HW,2013-01-19 07:31:00,
2013-01-19 02:36:00,41.9,28.5,29.98,South,180,15.6,15.6,59,0.00,,,0.14,WUHU216HW,2013-01-19 07:36:00,
2013-01-19 02:41:00,41.9,28.5,29.98,SW,225,5.8,15.6,59,0.00,,,0.14,WUHU216HW,2013-01-19 07:41:00,
2013-01-19 02:46:00,41.9,29.0,29.98,South,180,12.0,22.3,60,0.00,,,0.14,WUHU216HW,2013-01-19 07:46:00,
2013-01-19 02:51:00,41.9,29.0,29.98,SSE,158,14.5,22.3,60,0.00,,,0.14,WUHU216HW,2013-01-19 07:51:00,
2013-01-19 02:56:00,41.9,29.0,29.98,SSW,203,10.9,19.4,60,0.00,,,0.14,WUHU216HW,2013-01-19 07:56:00,
2013-01-19 03:01:00,41.7,28.8,29.98,SSE,158,8.5,16.3,60,0.00,,,0.00,WUHU216HW,2013-01-19 08:01:00,
2013-01-19 03:06:00,41.5,28.7,29.98,SSE,158,13.8,16.3,60,0.00,,,0.00,WUHU216HW,2013-01-19 08:06:00,
2013-01-19 03:11:00,41.5,29.0,29.98,SSW,203,17.4,18.1,61,0.00,,,0.00,WUHU216HW,2013-01-19 08:11:00,
2013-01-19 03:16:00,41.5,29.0,29.98,South,180,16.5,18.1,61,0.02,,,0.02,WUHU216HW,2013-01-19 08:16:00,
2013-01-19 03:21:00,41.3,28.9,29.98,SSW,203,19.4,19.4,61,0.02,,,0.02,WUHU216HW,2013-01-19 08:21:00,
2013-01-19 03:26:00,41.1,28.7,29.98,SW,225,19.0,19.4,61,0.02,,,0.02,WUHU216HW,2013-01-19 08:26:00,
2013-01-19 03:31:00,41.1,28.7,29.98,South,180,13.1,19.0,61,0.02,,,0.02,WUHU216HW,2013-01-19 08:31:00,
2013-01-19 03:36:00,41.1,29.1,29.98,SSW,203,16.7,16.7,62,0.02,,,0.02,WUHU216HW,2013-01-19 08:36:00,
2013-01-19 03:41:00,41.1,29.1,29.98,SW,225,9.6,17.2,62,0.02,,,0.02,WUHU216HW,2013-01-19 08:41:00,
2013-01-19 03:46:00,41.0,28.9,29.98,SW,225,20.5,20.5,62,0.02,,,0.02,WUHU216HW,2013-01-19 08:46:00,
2013-01-19 03:51:00,41.1,29.1,29.98,SW,225,9.3,20.5,62,0.02,,,0.02,WUHU216HW,2013-01-19 08:51:00,
2013-01-19 03:56:00,40.8,28.7,29.98,SSW,203,12.0,20.5,62,0.02,,,0.02,WUHU216HW,2013-01-19 08:56:00,
2013-01-19 04:01:00,40.8,28.7,29.98,South,180,6.4,14.5,62,0.02,,,0.02,WUHU216HW,2013-01-19 09:01:00,
2013-01-19 04:06:00,40.8,29.1,29.98,South,180,17.6,17.6,63,0.02,,,0.02,WUHU216HW,2013-01-19 09:06:00,
2013-01-19 04:11:00,40.8,29.1,29.97,SW,225,12.5,17.6,63,0.00,,,0.02,WUHU216HW,2013-01-19 09:11:00,
2013-01-19 04:16:00,40.8,29.1,29.97,SSE,158,9.8,19.4,63,0.00,,,0.02,WUHU216HW,2013-01-19 09:16:00,
2013-01-19 04:21:00,40.8,29.1,29.97,SSW,203,16.1,19.4,63,0.00,,,0.02,WUHU216HW,2013-01-19 09:21:00,
2013-01-19 04:26:00,40.6,28.9,29.97,SSW,203,19.6,19.6,63,0.00,,,0.02,WUHU216HW,2013-01-19 09:26:00,
2013-01-19 04:31:00,40.6,28.9,29.97,WSW,248,8.9,19.6,63,0.00,,,0.02,WUHU216HW,2013-01-19 09:31:00,
2013-01-19 04:36:00,40.4,29.1,29.96,SSW,203,14.0,14.0,64,0.00,,,0.02,WUHU216HW,2013-01-19 09:36:00,
2013-01-19 04:41:00,40.4,29.1,29.96,South,180,7.6,14.0,64,0.00,,,0.02,WUHU216HW,2013-01-19 09:41:00,
2013-01-19 04:46:00,40.2,29.0,29.96,SW,225,12.5,15.6,64,0.00,,,0.02,WUHU216HW,2013-01-19 09:46:00,
2013-01-19 04:51:00,40.2,29.0,29.96,SSW,203,13.8,15.6,64,0.00,,,0.02,WUHU216HW,2013-01-19 09:51:00,
2013-01-19 04:56:00,40.2,29.0,29.96,SSW,203,19.6,19.6,64,0.00,,,0.02,WUHU216HW,2013-01-19 09:56:00,
2013-01-19 05:01:00,40.2,29.0,29.96,WNW,293,5.8,19.6,64,0.00,,,0.02,WUHU216HW,2013-01-19 10:01:00,
2013-01-19 05:06:00,40.2,29.0,29.96,SSW,203,10.2,14.7,64,0.00,,,0.02,WUHU216HW,2013-01-19 10:06:00,
2013-01-19 05:11:00,40.2,29.0,29.96,SSW,203,12.0,12.0,64,0.00,,,0.02,WUHU216HW,2013-01-19 10:11:00,
2013-01-19 05:16:00,40.2,29.0,29.96,South,180,19.4,19.4,64,0.00,,,0.02,WUHU216HW,2013-01-19 10:16:00,
2013-01-19 05:22:00,40.2,29.0,29.95,South,180,17.8,19.4,64,0.00,,,0.02,WUHU216HW,2013-01-19 10:22:00,
2013-01-19 05:27:00,40.2,29.0,29.95,SSW,203,14.9,19.4,64,0.00,,,0.02,WUHU216HW,2013-01-19 10:27:00,
2013-01-19 05:32:00,40.1,28.8,29.95,WSW,248,9.6,19.4,64,0.00,,,0.02,WUHU216HW,2013-01-19 10:32:00,
2013-01-19 05:37:00,40.1,28.8,29.95,South,180,14.5,19.4,64,0.00,,,0.02,WUHU216HW,2013-01-19 10:37:00,
2013-01-19 05:42:00,39.9,28.6,29.94,SSW,203,11.8,14.5,64,0.00,,,0.02,WUHU216HW,2013-01-19 10:42:00,
2013-01-19 05:47:00,40.1,28.8,29.95,South,180,16.1,16.1,64,0.00,,,0.02,WUHU216HW,2013-01-19 10:47:00,
2013-01-19 05:52:00,40.1,28.8,29.95,SSW,203,14.3,19.6,64,0.00,,,0.02,WUHU216HW,2013-01-19 10:52:00,
2013-01-19 05:57:00,40.1,28.8,29.94,South,180,12.0,19.6,64,0.00,,,0.02,WUHU216HW,2013-01-19 10:57:00,
2013-01-19 06:02:00,40.1,28.8,29.94,SSE,158,19.4,19.4,64,0.00,,,0.02,WUHU216HW,2013-01-19 11:02:00,
2013-01-19 06:07:00,40.1,28.8,29.95,SSW,203,14.0,23.7,64,0.00,,,0.02,WUHU216HW,2013-01-19 11:07:00,
2013-01-19 06:12:00,40.1,28.8,29.95,SW,225,18.7,23.7,64,0.00,,,0.02,WUHU216HW,2013-01-19 11:12:00,
2013-01-19 06:14:00,40.1,28.8,29.95,SSW,203,18.1,23.7,64,0.00,,,0.02,WUHU216HW,2013-01-19 11:14:00,
2013-01-19 06:15:00,40.1,28.8,29.95,South,180,8.2,22.5,64,0.00,,,0.02,WUHU216HW,2013-01-19 11:15:00,
2013-01-19 06:16:00,40.1,28.8,29.95,South,180,8.2,22.5,64,0.00,,,0.02,WUHU216HW,2013-01-19 11:16:00,
2013-01-19 06:17:00,40.1,28.8,29.95,SSW,203,14.5,22.5,64,0.00,,,0.02,WUHU216HW,2013-01-19 11:17:00,
2013-01-19 06:20:00,40.1,28.8,29.95,SSW,203,18.7,18.7,64,0.00,,,0.02,WUHU216HW,2013-01-19 11:20:00,
2013-01-19 06:22:00,40.1,28.8,29.95,SSW,203,22.1,22.1,64,0.00,,,0.02,WUHU216HW,2013-01-19 11:22:00,
2013-01-19 06:24:00,40.1,28.8,29.95,SSW,203,8.9,22.1,64,0.00,,,0.02,WUHU216HW,2013-01-19 11:24:00,
2013-01-19 06:25:00,40.1,28.8,29.95,SSW,203,8.9,22.1,64,0.00,,,0.02,WUHU216HW,2013-01-19 11:25:00,
2013-01-19 06:26:00,40.1,28.8,29.95,WSW,248,14.0,22.1,64,0.00,,,0.02,WUHU216HW,2013-01-19 11:26:00,
2013-01-19 06:27:00,40.1,28.8,29.95,WSW,248,14.0,22.1,64,0.00,,,0.02,WUHU216HW,2013-01-19 11:27:00,
2013-01-19 06:28:00,40.1,28.8,29.95,SSW,203,13.6,22.1,64,0.00,,,0.02,WUHU216HW,2013-01-19 11:28:00,
2013-01-19 06:32:00,40.2,29.0,29.95,SSW,203,9.8,14.7,64,0.00,,,0.02,WUHU216HW,2013-01-19 11:32:00,
2013-01-19 06:33:00,40.2,29.0,29.95,SSW,203,9.8,14.7,64,0.00,,,0.02,WUHU216HW,2013-01-19 11:33:00,
2013-01-19 06:35:00,40.2,29.0,29.95,South,180,18.3,18.3,64,0.00,,,0.02,WUHU216HW,2013-01-19 11:35:00,
2013-01-19 06:37:00,40.2,29.0,29.95,SW,225,8.9,18.3,64,0.00,,,0.02,WUHU216HW,2013-01-19 11:37:00,
2013-01-19 06:38:00,40.2,29.0,29.95,North,0,0.0,18.3,64,0.00,,,0.02,WUHU216HW,2013-01-19 11:38:00,
2013-01-19 06:39:00,40.2,29.0,29.94,North,0,0.0,18.3,64,0.00,,,0.02,WUHU216HW,2013-01-19 11:39:00,
2013-01-19 06:40:00,40.2,29.0,29.94,SSW,203,19.0,19.0,64,0.00,,,0.02,WUHU216HW,2013-01-19 11:40:00,
2013-01-19 06:41:00,40.2,29.0,29.94,South,180,10.5,19.0,64,0.00,,,0.02,WUHU216HW,2013-01-19 11:41:00,
2013-01-19 06:42:00,40.2,29.0,29.94,South,180,10.5,19.0,64,0.00,,,0.02,WUHU216HW,2013-01-19 11:42:00,
2013-01-19 06:43:00,40.2,29.0,29.94,SSW,203,17.2,19.0,64,0.00,,,0.02,WUHU216HW,2013-01-19 11:43:00,
2013-01-19 06:44:00,40.2,29.0,29.94,SSW,203,17.2,19.0,64,0.00,,,0.02,WUHU216HW,2013-01-19 11:44:00,
2013-01-19 06:46:00,40.2,29.0,29.94,SSW,203,5.8,19.0,64,0.00,,,0.02,WUHU216HW,2013-01-19 11:46:00,
2013-01-19 06:47:00,40.2,29.0,29.94,SSW,203,7.3,19.0,64,0.00,,,0.02,WUHU216HW,2013-01-19 11:47:00,
2013-01-19 06:49:00,40.2,29.0,29.94,SSW,203,15.2,19.0,64,0.00,,,0.02,WUHU216HW,2013-01-19 11:49:00,
2013-01-19 06:50:00,40.2,29.0,29.94,SSW,203,15.2,17.2,64,0.00,,,0.02,WUHU216HW,2013-01-19 11:50:00,
2013-01-19 06:52:00,40.2,29.0,29.95,SW,225,18.7,18.7,64,0.00,,,0.02,WUHU216HW,2013-01-19 11:52:00,
2013-01-19 06:53:00,40.2,29.0,29.94,South,180,14.3,18.7,64,0.00,,,0.02,WUHU216HW,2013-01-19 11:53:00,
2013-01-19 06:55:00,40.2,29.0,29.94,WSW,248,16.7,18.7,64,0.00,,,0.02,WUHU216HW,2013-01-19 11:55:00,
2013-01-19 06:56:00,40.2,29.0,29.94,WSW,248,16.7,18.7,64,0.00,,,0.02,WUHU216HW,2013-01-19 11:56:00,
2013-01-19 06:58:00,40.2,29.0,29.94,South,180,12.7,18.7,64,0.00,,,0.02,WUHU216HW,2013-01-19 11:58:00,
2013-01-19 06:59:00,40.2,29.0,29.94,South,180,12.7,18.7,64,0.00,,,0.02,WUHU216HW,2013-01-19 11:59:00,
2013-01-19 07:01:00,40.2,29.0,29.94,SSW,203,12.5,18.7,64,0.00,,,0.02,WUHU216HW,2013-01-19 12:01:00,
2013-01-19 07:02:00,40.2,29.0,29.94,SSW,203,21.4,21.4,64,0.00,,,0.02,WUHU216HW,2013-01-19 12:02:00,
2013-01-19 07:04:00,40.2,29.0,29.94,SSW,203,21.4,21.4,64,0.00,,,0.02,WUHU216HW,2013-01-19 12:04:00,
2013-01-19 07:05:00,40.2,29.0,29.94,SSW,203,21.4,21.4,64,0.00,,,0.02,WUHU216HW,2013-01-19 12:05:00,
2013-01-19 07:08:00,40.2,29.0,29.94,SSW,203,10.5,21.4,64,0.00,,,0.02,WUHU216HW,2013-01-19 12:08:00,
2013-01-19 07:10:00,40.2,29.0,29.94,SSW,203,17.6,21.4,64,0.00,,,0.02,WUHU216HW,2013-01-19 12:10:00,
2013-01-19 07:11:00,40.2,29.0,29.94,SSW,203,17.6,21.4,64,0.00,,,0.02,WUHU216HW,2013-01-19 12:11:00,
2013-01-19 07:13:00,40.2,29.0,29.95,SSW,203,12.7,21.4,64,0.00,,,0.02,WUHU216HW,2013-01-19 12:13:00,
2013-01-19 07:14:00,40.2,29.0,29.95,SSW,203,12.7,21.4,64,0.00,,,0.02,WUHU216HW,2013-01-19 12:14:00,
2013-01-19 07:16:00,40.2,29.0,29.95,SW,225,17.2,17.6,64,0.00,,,0.02,WUHU216HW,2013-01-19 12:16:00,
2013-01-19 07:17:00,40.2,29.0,29.95,SSW,203,19.4,19.4,64,0.00,,,0.02,WUHU216HW,2013-01-19 12:17:00,
2013-01-19 07:19:00,40.2,29.0,29.95,South,180,12.0,19.4,64,0.00,,,0.02,WUHU216HW,2013-01-19 12:19:00,
2013-01-19 07:20:00,40.2,29.0,29.95,South,180,12.0,19.4,64,0.00,,,0.02,WUHU216HW,2013-01-19 12:20:00,
2013-01-19 07:22:00,40.2,29.0,29.95,SSW,203,17.2,19.4,64,0.00,,,0.02,WUHU216HW,2013-01-19 12:22:00,
2013-01-19 07:23:00,40.2,29.0,29.95,SSW,203,11.4,19.4,64,0.00,,,0.02,WUHU216HW,2013-01-19 12:23:00,
2013-01-19 07:25:00,40.2,29.0,29.95,SSE,158,6.2,19.4,64,0.00,,,0.02,WUHU216HW,2013-01-19 12:25:00,
2013-01-19 07:26:00,40.2,29.0,29.95,SSE,158,6.2,19.4,64,0.00,,,0.02,WUHU216HW,2013-01-19 12:26:00,
2013-01-19 07:28:00,40.2,29.0,29.96,South,180,10.2,17.2,64,0.00,,,0.02,WUHU216HW,2013-01-19 12:28:00,
2013-01-19 07:29:00,40.2,29.0,29.96,SSW,203,8.2,17.2,64,0.00,,,0.02,WUHU216HW,2013-01-19 12:29:00,
2013-01-19 07:31:00,40.2,29.0,29.96,SSW,203,8.2,17.2,64,0.00,,,0.02,WUHU216HW,2013-01-19 12:31:00,
2013-01-19 07:32:00,40.2,29.0,29.96,SSW,203,11.6,11.6,64,0.00,,,0.02,WUHU216HW,2013-01-19 12:32:00,
2013-01-19 07:34:00,40.2,29.0,29.96,SSE,158,13.6,13.6,64,0.00,,,0.02,WUHU216HW,2013-01-19 12:34:00,
2013-01-19 07:35:00,40.2,29.0,29.96,SSE,158,13.6,13.6,64,0.00,,,0.02,WUHU216HW,2013-01-19 12:35:00,
2013-01-19 07:37:00,40.2,29.0,29.97,South,180,6.0,13.6,64,0.00,,,0.02,WUHU216HW,2013-01-19 12:37:00,
2013-01-19 07:38:00,40.2,29.0,29.97,SSW,203,14.9,14.9,64,0.00,,,0.02,WUHU216HW,2013-01-19 12:38:00,
2013-01-19 07:47:00,40.2,29.0,29.97,WSW,248,8.0,18.3,64,0.00,,,0.02,WUHU216HW,2013-01-19 12:47:00,
2013-01-19 07:53:00,40.2,29.0,29.97,South,180,14.5,14.9,64,0.00,,,0.02,WUHU216HW,2013-01-19 12:53:00,
2013-01-19 07:58:00,40.2,29.0,29.97,South,180,10.7,14.9,64,0.00,,,0.02,WUHU216HW,2013-01-19 12:58:00,
2013-01-19 08:03:00,40.2,29.0,29.97,WNW,293,5.5,14.5,64,0.00,,,0.02,WUHU216HW,2013-01-19 13:03:00,
2013-01-19 08:08:00,40.1,28.8,29.98,South,180,12.3,12.7,64,0.00,,,0.02,WUHU216HW,2013-01-19 13:08:00,
2013-01-19 08:13:00,40.1,28.8,29.98,SW,225,11.8,12.7,64,0.00,,,0.02,WUHU216HW,2013-01-19 13:13:00,
2013-01-19 08:18:00,40.1,28.8,29.98,SSE,158,10.7,12.3,64,0.00,,,0.02,WUHU216HW,2013-01-19 13:18:00,
2013-01-19 08:23:00,40.1,28.8,29.98,SSW,203,9.3,11.1,64,0.00,,,0.02,WUHU216HW,2013-01-19 13:23:00,
2013-01-19 08:28:00,40.1,28.8,29.98,SSW,203,12.7,12.7,64,0.00,,,0.02,WUHU216HW,2013-01-19 13:28:00,
2013-01-19 08:33:00,40.2,29.0,29.98,SW,225,10.7,12.7,64,0.00,,,0.02,WUHU216HW,2013-01-19 13:33:00,
2013-01-19 08:38:00,41.7,29.6,29.99,SW,225,13.1,13.1,62,0.00,,,0.02,WUHU216HW,2013-01-19 13:38:00,
2013-01-19 08:43:00,42.4,29.8,29.99,WSW,248,4.0,13.1,61,0.00,,,0.02,WUHU216HW,2013-01-19 13:43:00,
2013-01-19 08:48:00,42.4,29.8,29.99,SW,225,12.7,13.1,61,0.00,,,0.02,WUHU216HW,2013-01-19 13:48:00,
2013-01-19 08:53:00,41.7,29.2,29.99,SSW,203,9.1,12.7,61,0.00,,,0.02,WUHU216HW,2013-01-19 13:53:00,
2013-01-19 08:58:00,41.5,29.4,29.99,South,180,7.6,11.1,62,0.00,,,0.02,WUHU216HW,2013-01-19 13:58:00,
2013-01-19 09:03:00,41.3,29.3,29.99,South,180,8.0,11.1,62,0.00,,,0.02,WUHU216HW,2013-01-19 14:03:00,
2013-01-19 09:08:00,41.3,29.3,30.00,SW,225,9.8,11.8,62,0.00,,,0.02,WUHU216HW,2013-01-19 14:08:00,
2013-01-19 09:13:00,41.1,29.5,29.99,SSW,203,7.3,15.8,63,0.00,,,0.02,WUHU216HW,2013-01-19 14:13:00,
2013-01-19 09:18:00,41.1,29.5,30.00,South,180,6.2,15.8,63,0.00,,,0.02,WUHU216HW,2013-01-19 14:18:00,
2013-01-19 09:23:00,41.1,29.5,30.00,SSW,203,7.8,9.3,63,0.00,,,0.02,WUHU216HW,2013-01-19 14:23:00,
2013-01-19 09:28:00,41.1,29.5,30.01,South,180,6.0,10.2,63,0.00,,,0.02,WUHU216HW,2013-01-19 14:28:00,
2013-01-19 09:33:00,41.1,29.5,30.00,SSE,158,6.7,10.7,63,0.00,,,0.02,WUHU216HW,2013-01-19 14:33:00,
2013-01-19 09:38:00,41.1,29.5,30.00,South,180,10.7,12.0,63,0.00,,,0.02,WUHU216HW,2013-01-19 14:38:00,
2013-01-19 09:43:00,41.1,29.5,30.00,SSE,158,5.8,12.0,63,0.00,,,0.02,WUHU216HW,2013-01-19 14:43:00,
2013-01-19 09:48:00,41.1,29.5,30.00,South,180,3.1,11.8,63,0.00,,,0.02,WUHU216HW,2013-01-19 14:48:00,
2013-01-19 09:53:00,41.0,29.3,30.01,SW,225,3.5,11.8,63,0.00,,,0.02,WUHU216HW,2013-01-19 14:53:00,
2013-01-19 09:58:00,40.8,29.1,30.01,South,180,2.9,5.3,63,0.00,,,0.02,WUHU216HW,2013-01-19 14:58:00,
2013-01-19 10:03:00,40.8,29.5,30.01,SSW,203,3.1,3.8,64,0.00,,,0.02,WUHU216HW,2013-01-19 15:03:00,
2013-01-19 10:08:00,40.6,29.3,30.01,SSW,203,6.9,6.9,64,0.00,,,0.02,WUHU216HW,2013-01-19 15:08:00,
2013-01-19 10:13:00,40.4,29.1,30.01,South,180,3.8,6.9,64,0.00,,,0.02,WUHU216HW,2013-01-19 15:13:00,
2013-01-19 10:18:00,40.4,29.5,30.00,SSE,158,2.2,6.9,65,0.00,,,0.02,WUHU216HW,2013-01-19 15:18:00,
2013-01-19 10:23:00,40.2,29.3,30.00,SSW,203,4.4,4.6,65,0.00,,,0.02,WUHU216HW,2013-01-19 15:23:00,
2013-01-19 10:28:00,40.4,29.5,30.01,SSE,158,4.9,4.9,65,0.00,,,0.02,WUHU216HW,2013-01-19 15:28:00,
2013-01-19 10:33:00,40.2,29.3,30.01,South,180,3.5,8.7,65,0.00,,,0.02,WUHU216HW,2013-01-19 15:33:00,
2013-01-19 10:38:00,40.2,29.3,30.01,South,180,5.5,8.7,65,0.00,,,0.02,WUHU216HW,2013-01-19 15:38:00,
2013-01-19 10:43:00,40.4,29.5,30.00,SSE,158,4.0,5.5,65,0.00,,,0.02,WUHU216HW,2013-01-19 15:43:00,
2013-01-19 10:48:00,40.6,29.7,30.01,East,90,0.8,6.9,65,0.00,,,0.02,WUHU216HW,2013-01-19 15:48:00,
2013-01-19 10:52:00,40.6,29.7,30.00,SSE,158,3.8,6.9,65,0.00,,,0.02,WUHU216HW,2013-01-19 15:52:00,
2013-01-19 10:53:00,40.6,29.7,30.01,SSW,203,8.2,8.2,65,0.00,,,0.02,WUHU216HW,2013-01-19 15:53:00,
2013-01-19 10:54:00,40.6,29.7,30.01,SSW,203,8.2,8.2,65,0.00,,,0.02,WUHU216HW,2013-01-19 15:54:00,
2013-01-19 10:55:00,40.6,29.7,30.00,South,180,7.1,8.2,65,0.00,,,0.02,WUHU216HW,2013-01-19 15:55:00,
2013-01-19 10:56:00,40.6,29.7,30.00,South,180,7.1,8.2,65,0.00,,,0.02,WUHU216HW,2013-01-19 15:56:00,
2013-01-19 10:57:00,40.8,29.9,30.00,South,180,5.3,8.2,65,0.00,,,0.02,WUHU216HW,2013-01-19 15:57:00,
2013-01-19 10:58:00,40.8,29.9,30.00,South,180,5.3,8.2,65,0.00,,,0.02,WUHU216HW,2013-01-19 15:58:00,
2013-01-19 10:59:00,40.8,30.3,30.00,South,180,5.8,8.2,66,0.00,,,0.02,WUHU216HW,2013-01-19 15:59:00,
2013-01-19 11:00:00,40.8,30.3,30.00,South,180,5.8,8.2,66,0.00,,,0.02,WUHU216HW,2013-01-19 16:00:00,
2013-01-19 11:01:00,40.8,29.9,30.00,SSW,203,9.1,9.1,65,0.00,,,0.02,WUHU216HW,2013-01-19 16:01:00,
2013-01-19 11:02:00,40.8,29.9,30.00,SSW,203,9.1,9.1,65,0.00,,,0.02,WUHU216HW,2013-01-19 16:02:00,
2013-01-19 11:03:00,40.8,29.9,30.00,South,180,4.0,9.1,65,0.00,,,0.02,WUHU216HW,2013-01-19 16:03:00,
2013-01-19 11:04:00,40.8,29.9,30.00,South,180,4.0,9.1,65,0.00,,,0.02,WUHU216HW,2013-01-19 16:04:00,
2013-01-19 11:05:00,40.8,29.9,30.00,South,180,4.0,9.1,65,0.00,,,0.02,WUHU216HW,2013-01-19 16:05:00,
2013-01-19 11:06:00,40.8,29.9,30.00,South,180,7.3,9.1,65,0.00,,,0.02,WUHU216HW,2013-01-19 16:06:00,
2013-01-19 11:07:00,40.8,29.9,29.99,South,180,7.3,9.1,65,0.00,,,0.02,WUHU216HW,2013-01-19 16:07:00,
2013-01-19 11:08:00,40.8,29.9,30.00,SSW,203,11.6,11.6,65,0.00,,,0.02,WUHU216HW,2013-01-19 16:08:00,
2013-01-19 11:09:00,40.8,29.9,30.00,SSW,203,11.6,11.6,65,0.00,,,0.02,WUHU216HW,2013-01-19 16:09:00,
2013-01-19 11:10:00,40.8,29.9,30.00,South,180,8.7,11.6,65,0.00,,,0.02,WUHU216HW,2013-01-19 16:10:00,
2013-01-19 11:11:00,40.8,29.9,30.00,South,180,8.7,11.6,65,0.00,,,0.02,WUHU216HW,2013-01-19 16:11:00,
2013-01-19 11:12:00,41.0,30.1,30.00,SSW,203,9.8,11.6,65,0.00,,,0.02,WUHU216HW,2013-01-19 16:12:00,
2013-01-19 11:13:00,41.0,30.1,30.00,SSW,203,9.8,11.6,65,0.00,,,0.02,WUHU216HW,2013-01-19 16:13:00,
2013-01-19 11:14:00,41.0,30.1,30.00,South,180,5.8,11.6,65,0.00,,,0.02,WUHU216HW,2013-01-19 16:14:00,
2013-01-19 11:15:00,41.0,30.1,30.00,South,180,5.8,11.6,65,0.00,,,0.02,WUHU216HW,2013-01-19 16:15:00,
2013-01-19 11:16:00,41.0,30.1,30.00,South,180,7.8,11.6,65,0.00,,,0.02,WUHU216HW,2013-01-19 16:16:00,
2013-01-19 11:17:00,41.0,30.1,30.00,South,180,7.8,11.6,65,0.00,,,0.02,WUHU216HW,2013-01-19 16:17:00,
2013-01-19 11:18:00,41.0,30.1,30.00,South,180,7.8,11.6,65,0.00,,,0.02,WUHU216HW,2013-01-19 16:18:00,
2013-01-19 11:19:00,41.0,30.1,30.00,SSW,203,9.3,9.8,65,0.00,,,0.02,WUHU216HW,2013-01-19 16:19:00,
2013-01-19 11:20:00,41.0,30.1,29.99,SSW,203,9.3,9.8,65,0.00,,,0.02,WUHU216HW,2013-01-19 16:20:00,
2013-01-19 11:21:00,41.1,30.2,29.99,SSW,203,5.1,9.8,65,0.00,,,0.02,WUHU216HW,2013-01-19 16:21:00,
2013-01-19 11:22:00,41.1,30.2,29.99,SSW,203,5.1,9.8,65,0.00,,,0.02,WUHU216HW,2013-01-19 16:22:00,
2013-01-19 11:23:00,41.1,30.2,29.99,South,180,8.2,9.3,65,0.00,,,0.02,WUHU216HW,2013-01-19 16:23:00,
2013-01-19 11:24:00,41.1,30.2,29.99,South,180,8.2,9.3,65,0.00,,,0.02,WUHU216HW,2013-01-19 16:24:00,
2013-01-19 11:25:00,41.1,30.2,29.99,South,180,7.3,9.3,65,0.00,,,0.02,WUHU216HW,2013-01-19 16:25:00,
2013-01-19 11:26:00,41.1,30.2,29.99,South,180,7.3,9.3,65,0.00,,,0.02,WUHU216HW,2013-01-19 16:26:00,
2013-01-19 11:27:00,41.1,30.2,29.99,SSW,203,8.2,9.3,65,0.00,,,0.02,WUHU216HW,2013-01-19 16:27:00,
2013-01-19 11:28:00,41.1,30.2,29.99,SSW,203,8.2,9.3,65,0.00,,,0.02,WUHU216HW,2013-01-19 16:28:00,
2013-01-19 11:29:00,41.1,30.2,29.99,SSW,203,10.5,10.5,65,0.00,,,0.02,WUHU216HW,2013-01-19 16:29:00,
2013-01-19 11:30:00,41.1,30.2,29.99,SSW,203,10.5,10.5,65,0.00,,,0.02,WUHU216HW,2013-01-19 16:30:00,
2013-01-19 11:31:00,41.3,30.4,29.99,South,180,3.3,10.5,65,0.00,,,0.02,WUHU216HW,2013-01-19 16:31:00,
2013-01-19 11:32:00,41.3,30.4,29.99,South,180,3.3,10.5,65,0.00,,,0.02,WUHU216HW,2013-01-19 16:32:00,
2013-01-19 11:33:00,41.3,30.4,29.99,South,180,8.0,10.5,65,0.00,,,0.02,WUHU216HW,2013-01-19 16:33:00,
2013-01-19 11:34:00,41.3,30.4,29.99,South,180,8.0,10.5,65,0.00,,,0.02,WUHU216HW,2013-01-19 16:34:00,
2013-01-19 11:35:00,41.3,30.4,29.99,South,180,8.0,10.5,65,0.00,,,0.02,WUHU216HW,2013-01-19 16:35:00,
2013-01-19 11:36:00,41.3,30.4,29.99,South,180,8.0,10.5,65,0.00,,,0.02,WUHU216HW,2013-01-19 16:36:00,
2013-01-19 11:37:00,41.3,30.4,29.99,South,180,8.0,10.5,65,0.00,,,0.02,WUHU216HW,2013-01-19 16:37:00,
2013-01-19 11:38:00,41.3,30.4,29.98,SSW,203,8.9,10.5,65,0.00,,,0.02,WUHU216HW,2013-01-19 16:38:00,
2013-01-19 11:39:00,41.3,30.4,29.98,SSW,203,8.9,10.5,65,0.00,,,0.02,WUHU216HW,2013-01-19 16:39:00,
2013-01-19 11:40:00,41.5,30.6,29.98,South,180,9.1,9.1,65,0.00,,,0.02,WUHU216HW,2013-01-19 16:40:00,
2013-01-19 11:41:00,41.5,30.6,29.98,South,180,9.1,9.1,65,0.00,,,0.02,WUHU216HW,2013-01-19 16:41:00,
2013-01-19 11:42:00,41.5,30.6,29.98,South,180,9.1,9.1,65,0.00,,,0.02,WUHU216HW,2013-01-19 16:42:00,
2013-01-19 11:43:00,41.5,30.6,29.98,SW,225,2.4,9.1,65,0.00,,,0.02,WUHU216HW,2013-01-19 16:43:00,
2013-01-19 11:44:00,41.5,30.6,29.98,SSW,203,9.6,9.6,65,0.00,,,0.02,WUHU216HW,2013-01-19 16:44:00,
2013-01-19 11:45:00,41.5,30.6,29.98,SSW,203,9.6,9.6,65,0.00,,,0.02,WUHU216HW,2013-01-19 16:45:00,
2013-01-19 11:46:00,41.5,30.6,29.97,SW,225,9.8,9.8,65,0.00,,,0.02,WUHU216HW,2013-01-19 16:46:00,
2013-01-19 11:47:00,41.5,30.6,29.97,SW,225,9.8,9.8,65,0.00,,,0.02,WUHU216HW,2013-01-19 16:47:00,
2013-01-19 11:48:00,41.5,30.6,29.97,South,180,8.9,9.8,65,0.00,,,0.02,WUHU216HW,2013-01-19 16:48:00,
2013-01-19 11:49:00,41.5,30.6,29.97,South,180,8.9,9.8,65,0.00,,,0.02,WUHU216HW,2013-01-19 16:49:00,
2013-01-19 11:50:00,41.7,30.7,29.96,SE,135,10.2,10.2,65,0.00,,,0.02,WUHU216HW,2013-01-19 16:50:00,
2013-01-19 11:51:00,41.7,30.7,29.96,SE,135,10.2,10.2,65,0.00,,,0.02,WUHU216HW,2013-01-19 16:51:00,
2013-01-19 11:52:00,41.7,30.7,29.97,South,180,9.8,10.2,65,0.00,,,0.02,WUHU216HW,2013-01-19 16:52:00,
2013-01-19 11:53:00,41.7,30.7,29.96,South,180,9.8,10.2,65,0.00,,,0.02,WUHU216HW,2013-01-19 16:53:00,
2013-01-19 11:54:00,41.7,30.7,29.96,South,180,9.8,10.2,65,0.00,,,0.02,WUHU216HW,2013-01-19 16:54:00,
2013-01-19 11:55:00,41.9,30.9,29.96,SSW,203,11.4,11.4,65,0.00,,,0.02,WUHU216HW,2013-01-19 16:55:00,
2013-01-19 11:56:00,41.9,30.9,29.95,SSW,203,11.4,11.4,65,0.00,,,0.02,WUHU216HW,2013-01-19 16:56:00,
2013-01-19 11:57:00,42.0,31.1,29.96,SSW,203,10.5,11.4,65,0.00,,,0.02,WUHU216HW,2013-01-19 16:57:00,
2013-01-19 11:58:00,42.0,31.1,29.96,SSW,203,10.5,11.4,65,0.00,,,0.02,WUHU216HW,2013-01-19 16:58:00,
2013-01-19 11:59:00,42.0,30.7,29.96,SSE,158,10.2,11.4,64,0.00,,,0.02,WUHU216HW,2013-01-19 16:59:00,
2013-01-19 12:00:00,42.0,30.7,29.96,SSE,158,10.2,11.4,64,0.00,,,0.02,WUHU216HW,2013-01-19 17:00:00,
2013-01-19 12:01:00,42.2,30.9,29.96,South,180,11.6,11.6,64,0.00,,,0.02,WUHU216HW,2013-01-19 17:01:00,
2013-01-19 12:02:00,42.2,30.9,29.96,South,180,11.6,11.6,64,0.00,,,0.02,WUHU216HW,2013-01-19 17:02:00,
2013-01-19 12:03:00,42.4,31.0,29.96,South,180,10.7,11.6,64,0.00,,,0.02,WUHU216HW,2013-01-19 17:03:00,
2013-01-19 12:04:00,42.4,31.0,29.96,South,180,10.7,11.6,64,0.00,,,0.02,WUHU216HW,2013-01-19 17:04:00,
2013-01-19 12:05:00,42.4,31.0,29.96,South,180,15.2,15.2,64,0.00,,,0.02,WUHU216HW,2013-01-19 17:05:00,
2013-01-19 12:06:00,42.4,31.0,29.96,South,180,15.2,15.2,64,0.00,,,0.02,WUHU216HW,2013-01-19 17:06:00,
2013-01-19 12:07:00,42.4,31.0,29.95,SSW,203,10.9,15.2,64,0.00,,,0.02,WUHU216HW,2013-01-19 17:07:00,
2013-01-19 12:08:00,42.6,31.2,29.95,SSW,203,10.9,15.2,64,0.00,,,0.02,WUHU216HW,2013-01-19 17:08:00,
2013-01-19 12:09:00,42.6,31.2,29.95,SSW,203,10.9,15.2,64,0.00,,,0.02,WUHU216HW,2013-01-19 17:09:00,
2013-01-19 12:10:00,42.6,30.8,29.95,South,180,6.4,15.2,63,0.00,,,0.02,WUHU216HW,2013-01-19 17:10:00,
2013-01-19 12:11:00,42.6,30.8,29.95,South,180,6.4,15.2,63,0.00,,,0.02,WUHU216HW,2013-01-19 17:11:00,
2013-01-19 12:12:00,42.9,31.1,29.95,South,180,15.2,15.2,63,0.00,,,0.02,WUHU216HW,2013-01-19 17:12:00,
2013-01-19 12:13:00,42.9,31.1,29.95,South,180,15.2,15.2,63,0.00,,,0.02,WUHU216HW,2013-01-19 17:13:00,
2013-01-19 12:14:00,42.9,31.1,29.95,SSW,203,9.1,15.2,63,0.00,,,0.02,WUHU216HW,2013-01-19 17:14:00,
2013-01-19 12:15:00,42.9,31.1,29.96,SSW,203,9.1,15.2,63,0.00,,,0.02,WUHU216HW,2013-01-19 17:15:00,
2013-01-19 12:16:00,42.9,31.1,29.95,SSW,203,10.5,15.2,63,0.00,,,0.02,WUHU216HW,2013-01-19 17:16:00,
2013-01-19 12:17:00,42.9,31.1,29.95,SSW,203,10.5,15.2,63,0.00,,,0.02,WUHU216HW,2013-01-19 17:17:00,
2013-01-19 12:18:00,43.1,31.1,29.95,SSW,203,10.5,15.2,63,0.00,,,0.02,WUHU216HW,2013-01-19 17:18:00,
2013-01-19 12:19:00,43.1,31.1,29.95,SSW,203,10.5,15.2,63,0.00,,,0.02,WUHU216HW,2013-01-19 17:19:00,
2013-01-19 12:20:00,43.3,31.5,29.95,South,180,8.5,15.2,63,0.00,,,0.02,WUHU216HW,2013-01-19 17:20:00,
2013-01-19 12:21:00,43.3,31.5,29.95,South,180,8.5,15.2,63,0.00,,,0.02,WUHU216HW,2013-01-19 17:21:00,
2013-01-19 12:22:00,43.5,31.5,29.94,SSW,203,14.3,15.2,63,0.00,,,0.02,WUHU216HW,2013-01-19 17:22:00,
2013-01-19 12:23:00,43.5,31.7,29.94,SSW,203,14.3,14.3,63,0.00,,,0.02,WUHU216HW,2013-01-19 17:23:00,
2013-01-19 12:24:00,43.5,31.7,29.94,SSW,203,14.3,14.3,63,0.00,,,0.02,WUHU216HW,2013-01-19 17:24:00,
2013-01-19 12:29:00,44.0,31.8,29.94,South,180,14.0,14.3,62,0.00,,,0.02,WUHU216HW,2013-01-19 17:29:00,
2013-01-19 12:30:00,44.0,31.8,29.94,South,180,14.0,14.3,62,0.00,,,0.02,WUHU216HW,2013-01-19 17:30:00,
2013-01-19 12:34:00,44.2,31.6,29.94,SSW,203,14.3,14.3,61,0.00,,,0.02,WUHU216HW,2013-01-19 17:34:00,
2013-01-19 12:39:00,44.7,32.1,29.93,South,180,8.2,14.3,61,0.00,,,0.02,WUHU216HW,2013-01-19 17:39:00,
2013-01-19 12:44:00,45.5,32.4,29.92,SSW,203,9.8,17.8,60,0.00,,,0.02,WUHU216HW,2013-01-19 17:44:00,
2013-01-19 12:49:00,45.6,32.1,29.92,South,180,9.6,17.8,59,0.00,,,0.02,WUHU216HW,2013-01-19 17:49:00,
2013-01-19 12:54:00,46.0,32.4,29.92,South,180,10.2,16.7,59,0.00,,,0.02,WUHU216HW,2013-01-19 17:54:00,
2013-01-19 12:59:00,46.2,32.1,29.91,SSW,203,15.2,15.2,58,0.00,,,0.02,WUHU216HW,2013-01-19 17:59:00,
2013-01-19 13:04:00,46.5,32.5,29.91,SSW,203,19.4,19.4,58,0.00,,,0.02,WUHU216HW,2013-01-19 18:04:00,
2013-01-19 13:09:00,47.1,32.5,29.90,South,180,13.1,20.1,57,0.00,,,0.02,WUHU216HW,2013-01-19 18:09:00,
2013-01-19 13:14:00,47.4,32.4,29.91,South,180,14.0,20.1,56,0.00,,,0.02,WUHU216HW,2013-01-19 18:14:00,
2013-01-19 13:19:00,47.4,32.4,29.91,South,180,15.6,15.6,56,0.00,,,0.02,WUHU216HW,2013-01-19 18:19:00,
2013-01-19 13:24:00,47.3,32.7,29.90,SW,225,9.3,19.0,57,0.00,,,0.02,WUHU216HW,2013-01-19 18:24:00,
2013-01-19 13:29:00,47.1,32.5,29.90,South,180,6.2,19.0,57,0.00,,,0.02,WUHU216HW,2013-01-19 18:29:00,
2013-01-19 13:34:00,46.7,32.2,29.90,SSW,203,15.6,15.6,57,0.00,,,0.02,WUHU216HW,2013-01-19 18:34:00,
2013-01-19 13:39:00,46.5,32.5,29.89,South,180,10.2,15.6,58,0.00,,,0.02,WUHU216HW,2013-01-19 18:39:00,
2013-01-19 18:50:00,45.3,34.9,29.83,SSW,203,17.4,17.4,67,0.00,,,0.02,WUHU216HW,2013-01-19 23:50:00,
2013-01-19 18:55:00,45.3,35.3,29.83,SW,225,17.2,17.4,68,0.00,,,0.02,WUHU216HW,2013-01-19 23:55:00,
2013-01-19 19:00:00,45.3,35.3,29.83,SW,225,14.7,17.4,68,0.00,,,0.02,WUHU216HW,2013-01-20 00:00:00,
2013-01-19 19:05:00,45.1,35.1,29.83,WNW,293,9.1,14.7,68,0.00,,,0.02,WUHU216HW,2013-01-20 00:05:00,
2013-01-19 19:10:00,45.1,35.1,29.84,South,180,10.7,12.3,68,0.00,,,0.02,WUHU216HW,2013-01-20 00:10:00,
2013-01-19 19:15:00,44.9,35.3,29.84,SSW,203,9.6,15.2,69,0.00,,,0.02,WUHU216HW,2013-01-20 00:15:00,
2013-01-19 19:21:00,44.7,35.2,29.83,South,180,15.8,15.8,69,0.00,,,0.02,WUHU216HW,2013-01-20 00:21:00,
2013-01-19 19:26:00,44.4,35.2,29.83,SSW,203,9.8,15.8,70,0.00,,,0.02,WUHU216HW,2013-01-20 00:26:00,
2013-01-19 19:31:00,44.4,35.2,29.82,SSE,158,14.9,14.9,70,0.00,,,0.02,WUHU216HW,2013-01-20 00:31:00,
2013-01-19 19:36:00,44.2,35.4,29.83,SSE,158,21.0,21.0,71,0.00,,,0.02,WUHU216HW,2013-01-20 00:36:00,
2013-01-19 19:41:00,44.2,35.4,29.82,SW,225,11.1,21.0,71,0.00,,,0.02,WUHU216HW,2013-01-20 00:41:00,
2013-01-19 19:47:00,44.2,35.4,29.82,SSW,203,10.0,21.0,71,0.00,,,0.02,WUHU216HW,2013-01-20 00:47:00,
2013-01-19 19:52:00,44.2,35.4,29.82,SW,225,9.6,17.6,71,0.00,,,0.02,WUHU216HW,2013-01-20 00:52:00,
2013-01-19 19:57:00,44.0,35.2,29.82,SSW,203,7.6,17.6,71,0.00,,,0.02,WUHU216HW,2013-01-20 00:57:00,
2013-01-19 20:02:00,44.2,35.4,29.82,SSW,203,18.5,19.6,71,0.00,,,0.02,WUHU216HW,2013-01-20 01:02:00,
2013-01-19 20:07:00,44.0,35.2,29.83,SSW,203,8.5,19.6,71,0.00,,,0.02,WUHU216HW,2013-01-20 01:07:00,
2013-01-19 20:12:00,43.8,35.4,29.82,South,180,14.0,18.5,72,0.00,,,0.02,WUHU216HW,2013-01-20 01:12:00,
2013-01-19 20:17:00,43.8,35.4,29.82,SSW,203,13.4,14.0,72,0.00,,,0.02,WUHU216HW,2013-01-20 01:17:00,
2013-01-19 20:22:00,43.8,35.4,29.82,SSW,203,15.2,15.2,72,0.00,,,0.02,WUHU216HW,2013-01-20 01:22:00,
2013-01-19 20:27:00,43.8,35.4,29.82,SW,225,17.0,17.0,72,0.00,,,0.02,WUHU216HW,2013-01-20 01:27:00,
2013-01-19 20:33:00,43.8,35.7,29.81,West,270,8.2,17.0,73,0.00,,,0.02,WUHU216HW,2013-01-20 01:33:00,
2013-01-19 20:38:00,43.7,35.6,29.82,SW,225,10.7,18.5,73,0.00,,,0.02,WUHU216HW,2013-01-20 01:38:00,
2013-01-19 20:43:00,43.5,35.7,29.81,South,180,16.1,18.5,74,0.00,,,0.02,WUHU216HW,2013-01-20 01:43:00,
2013-01-19 20:48:00,43.5,35.7,29.82,SSW,203,6.9,16.1,74,0.00,,,0.02,WUHU216HW,2013-01-20 01:48:00,
2013-01-19 20:53:00,43.3,35.6,29.81,South,180,12.9,18.1,74,0.00,,,0.02,WUHU216HW,2013-01-20 01:53:00,
2013-01-19 20:59:00,43.3,35.6,29.80,SW,225,12.9,18.1,74,0.00,,,0.02,WUHU216HW,2013-01-20 01:59:00,
2013-01-19 21:04:00,43.3,35.9,29.80,SW,225,11.6,16.3,75,0.00,,,0.02,WUHU216HW,2013-01-20 02:04:00,
2013-01-19 21:09:00,43.3,35.9,29.80,SW,225,6.7,16.3,75,0.00,,,0.02,WUHU216HW,2013-01-20 02:09:00,
2013-01-19 21:14:00,43.3,35.9,29.80,SW,225,10.9,14.5,75,0.00,,,0.02,WUHU216HW,2013-01-20 02:14:00,
2013-01-19 21:19:00,43.3,35.9,29.80,SSW,203,11.8,11.8,75,0.00,,,0.02,WUHU216HW,2013-01-20 02:19:00,
2013-01-19 21:24:00,43.3,35.6,29.80,SSE,158,11.8,11.8,74,0.00,,,0.02,WUHU216HW,2013-01-20 02:24:00,
2013-01-19 21:29:00,43.5,35.7,29.80,SSW,203,20.5,20.5,74,0.00,,,0.02,WUHU216HW,2013-01-20 02:29:00,
2013-01-19 21:34:00,43.7,35.6,29.80,West,270,14.3,20.5,73,0.00,,,0.02,WUHU216HW,2013-01-20 02:34:00,
2013-01-19 21:39:00,43.7,35.6,29.80,SW,225,13.6,20.5,73,0.00,,,0.02,WUHU216HW,2013-01-20 02:39:00,
2013-01-19 21:44:00,43.7,35.6,29.80,SSW,203,7.1,14.3,73,0.00,,,0.02,WUHU216HW,2013-01-20 02:44:00,
2013-01-19 21:49:00,43.7,35.6,29.80,SSW,203,5.1,16.5,73,0.00,,,0.02,WUHU216HW,2013-01-20 02:49:00,
2013-01-19 21:54:00,43.5,35.0,29.79,SW,225,6.2,16.5,72,0.00,,,0.02,WUHU216HW,2013-01-20 02:54:00,
2013-01-19 21:59:00,43.5,35.0,29.80,SW,225,10.9,15.2,72,0.00,,,0.02,WUHU216HW,2013-01-20 02:59:00,
2013-01-19 22:04:00,43.5,35.0,29.81,WSW,248,8.2,15.2,72,0.00,,,0.02,WUHU216HW,2013-01-20 03:04:00,
2013-01-19 22:09:00,43.5,35.0,29.81,SSW,203,11.6,12.3,72,0.00,,,0.02,WUHU216HW,2013-01-20 03:09:00,
2013-01-19 22:14:00,43.5,35.0,29.81,West,270,21.6,21.6,72,0.00,,,0.02,WUHU216HW,2013-01-20 03:14:00,
2013-01-19 22:19:00,43.5,34.4,29.82,WNW,293,16.1,21.6,70,0.00,,,0.02,WUHU216HW,2013-01-20 03:19:00,
2013-01-19 22:25:00,43.5,33.6,29.82,NNW,338,17.0,21.6,68,0.00,,,0.02,WUHU216HW,2013-01-20 03:25:00,
2013-01-19 22:30:00,43.5,34.0,29.81,West,270,7.3,17.0,69,0.00,,,0.02,WUHU216HW,2013-01-20 03:30:00,
2013-01-19 22:35:00,43.3,34.2,29.81,West,270,4.4,7.3,70,0.00,,,0.02,WUHU216HW,2013-01-20 03:35:00,
2013-01-19 22:40:00,42.9,34.2,29.82,WNW,293,22.1,22.1,71,0.00,,,0.02,WUHU216HW,2013-01-20 03:40:00,
2013-01-19 22:45:00,42.9,34.2,29.82,WSW,248,7.3,22.1,71,0.00,,,0.02,WUHU216HW,2013-01-20 03:45:00,
2013-01-19 22:50:00,42.6,33.9,29.82,SW,225,17.4,22.1,71,0.00,,,0.02,WUHU216HW,2013-01-20 03:50:00,
2013-01-19 22:55:00,42.6,34.2,29.82,SSW,203,3.1,17.4,72,0.00,,,0.02,WUHU216HW,2013-01-20 03:55:00,
2013-01-19 23:00:00,42.4,34.0,29.82,WSW,248,8.7,14.9,72,0.00,,,0.02,WUHU216HW,2013-01-20 04:00:00,
2013-01-19 23:05:00,42.4,34.0,29.82,WSW,248,12.9,12.9,72,0.00,,,0.02,WUHU216HW,2013-01-20 04:05:00,
2013-01-19 23:10:00,42.0,33.4,29.82,NW,315,13.1,13.1,71,0.00,,,0.02,WUHU216HW,2013-01-20 04:10:00,
2013-01-19 23:15:00,41.9,33.2,29.82,SE,135,7.1,13.1,71,0.00,,,0.02,WUHU216HW,2013-01-20 04:15:00,
2013-01-19 23:20:00,41.7,32.3,29.82,West,270,5.5,13.1,69,0.00,,,0.02,WUHU216HW,2013-01-20 04:20:00,
2013-01-19 23:26:00,41.5,32.1,29.82,West,270,7.3,7.3,69,0.00,,,0.02,WUHU216HW,2013-01-20 04:26:00,
2013-01-19 23:31:00,41.3,31.9,29.82,North,0,10.0,10.0,69,0.00,,,0.02,WUHU216HW,2013-01-20 04:31:00,
2013-01-19 23:37:00,41.1,29.8,29.82,SSW,203,7.1,10.0,64,0.00,,,0.02,WUHU216HW,2013-01-20 04:37:00,
2013-01-19 23:42:00,41.1,29.8,29.82,SW,225,5.3,12.9,64,0.00,,,0.02,WUHU216HW,2013-01-20 04:42:00,
2013-01-19 23:47:00,40.8,29.9,29.81,West,270,10.9,12.9,65,0.00,,,0.02,WUHU216HW,2013-01-20 04:47:00,
2013-01-19 23:52:00,40.8,29.9,29.81,NNW,338,3.1,16.5,65,0.00,,,0.02,WUHU216HW,2013-01-20 04:52:00,
2013-01-19 23:57:00,40.8,29.9,29.82,West,270,13.1,16.5,65,0.00,,,0.02,WUHU216HW,2013-01-20 04:57:00,